Weather History for Frederick, OK

Change the Weather History Date:

Thursday, June 20, 2013

  Actual Average (KLTS) Record (KLTS)
Temperature  
Mean Temperature 83 °F -  
Max Temperature 98 °F 89 °F 113 °F (1998)
Min Temperature 68 °F 67 °F 65 °F (2007)
Cooling Degree Days 18    
Growing Degree Days 33 (Base 50)    
Moisture  
Dew Point 64 °F    
Average Humidity 56    
Maximum Humidity 87    
Minimum Humidity 31    
Precipitation  
Precipitation 0.00 in - - ()
Sea Level Pressure  
Sea Level Pressure 29.86 in    
Wind  
Wind Speed 13 mph (SSE)    
Max Wind Speed 25 mph    
Max Gust Speed 33 mph    
Visibility 10 miles    
Events      
Averages and records for this station are not official NWS values.
T = Trace of Precipitation, MM = Missing Value Source: NWS Daily Summary

Daily Weather History Graph

Daily Weather History Graph

Search for Another Location

Airport:

Trip Planner

Search our weather history database for the weather conditions in past years. The results will help you decide how hot, cold, wet, or windy it might be!

Date:

Astronomy

Jun. 20, 2013 Rise Set
Actual Time 6:23 AM CDT 8:51 PM CDT
Civil Twilight 5:54 AM CDT 9:20 PM CDT
Nautical Twilight 5:18 AM CDT 9:56 PM CDT
Astronomical Twilight 4:38 AM CDT 10:36 PM CDT
Moon 5:59 PM CDT 3:46 AM CDT
Length of Visible Light 15h 26m
Length of Day
14h 27m
Waxing Gibbous, 89% of the Moon is Illuminated
Jun 20
Waxing Gibbous
Jun 23
Full
Jun 29
Last Quarter
Jul 8
New
Jul 15
First Quarter

Hourly Weather History & Observations

Time (CDT) Temp. Heat Index Dew Point Humidity Pressure Visibility Wind Dir Wind Speed Gust Speed Precip Events Conditions
12:53 AM 73.0 °F - 66.9 °F 81% 29.85 in 10.0 mi SSE 10.4 mph - N/A   Clear
1:53 AM 72.0 °F - 64.0 °F 76% 29.82 in 10.0 mi ESE 12.7 mph - N/A   Clear
2:53 AM 71.1 °F - 63.0 °F 75% 29.83 in 10.0 mi SE 6.9 mph - N/A   Clear
3:53 AM 70.0 °F - 63.0 °F 78% 29.83 in 10.0 mi SE 6.9 mph - N/A   Clear
4:53 AM 69.1 °F - 63.0 °F 81% 29.84 in 10.0 mi ESE 6.9 mph - N/A   Clear
5:53 AM 68.0 °F - 64.0 °F 87% 29.86 in 10.0 mi ESE 6.9 mph - N/A   Clear
6:53 AM 68.0 °F - 64.0 °F 87% 29.88 in 10.0 mi East 5.8 mph - N/A   Clear
7:53 AM 72.0 °F - 66.0 °F 81% 29.90 in 10.0 mi SE 11.5 mph - N/A   Clear
8:53 AM 79.0 °F - 66.9 °F 66% 29.90 in 10.0 mi South 16.1 mph - N/A   Clear
9:53 AM 82.9 °F 85.8 °F 68.0 °F 60% 29.90 in 10.0 mi South 18.4 mph 24.2 mph N/A   Clear
10:53 AM 87.1 °F 90.6 °F 68.0 °F 53% 29.90 in 10.0 mi South 19.6 mph 26.5 mph N/A   Clear
11:53 AM 90.0 °F 93.6 °F 68.0 °F 48% 29.90 in 10.0 mi South 19.6 mph - N/A   Clear
12:53 PM 93.0 °F 97.4 °F 68.0 °F 44% 29.89 in 10.0 mi South 19.6 mph 24.2 mph N/A   Clear
1:53 PM 95.0 °F 97.9 °F 66.0 °F 38% 29.87 in 10.0 mi South 21.9 mph 27.6 mph N/A   Clear
2:53 PM 97.0 °F 99.3 °F 64.0 °F 34% 29.85 in 10.0 mi SSE 23.0 mph 29.9 mph N/A   Clear
3:53 PM 97.0 °F 97.8 °F 62.1 °F 31% 29.84 in 10.0 mi South 23.0 mph 33.4 mph N/A   Clear
4:53 PM 98.1 °F 100.7 °F 64.0 °F 33% 29.82 in 10.0 mi South 21.9 mph 28.8 mph N/A   Clear
5:53 PM 96.1 °F 97.3 °F 63.0 °F 33% 29.80 in 10.0 mi SSE 25.3 mph 31.1 mph N/A   Clear
6:53 PM 93.9 °F 94.8 °F 62.1 °F 35% 29.80 in 10.0 mi SSE 23.0 mph 31.1 mph N/A   Clear
7:53 PM 91.9 °F 92.5 °F 62.1 °F 37% 29.82 in 10.0 mi SSE 20.7 mph 25.3 mph N/A   Clear
8:53 PM 89.1 °F 89.0 °F 61.0 °F 39% 29.83 in 10.0 mi SSE 13.8 mph - N/A   Clear
9:53 PM 86.0 °F 86.3 °F 62.1 °F 44% 29.85 in 10.0 mi SSE 12.7 mph - N/A   Clear
10:53 PM 82.0 °F 83.1 °F 63.0 °F 52% 29.88 in 10.0 mi SE 6.9 mph - N/A   Clear
11:53 PM 82.9 °F 84.4 °F 64.0 °F 53% 29.89 in 10.0 mi South 9.2 mph - N/A   Clear